STARLINK-36427, 67333

Orbit data source: Space-Track

STARLINK-36427, 67333 is a payload satellite owned by SpaceX/Seattle (US) in LEO that was launched on Sun, 04 Jan 2026 UTC via an FALCON 9 launch vehicle from the Air Force Eastern Test Range (AFETR). Payload-class satellites include a variety of spacecraft equipped with specific instruments for various scientific and technological missions. These include communications satellites like Starlink; space stations such as the ISS; scientific satellites like the Hubble; Earth observation satellites from companies like Planet Labs, Umbra, and HawkEye 360; GPS; miniature CubeSats for education and research; and military/defense satellites.

Loading next visibility...
Identifier
67333, 2026-002AE
Orbit
LEO
Country
Flag of USUS
Related business
Manufacturer
SpaceX/Seattle
Mission
Operational Commercial Communications
Bus & Motor
STARLINK V2MO, Unknown motor
Mass
575 kg wet, ~530 kg dry
Launch date (UTC)
2026-01-04 (2 months ago)
Launch vehicle
FALCON 9
Launch site
Air Force Eastern Test Range (AFETR)
Object type
Payload
Rocket body
Debris
Shape & HBR
Box + 2 Pan, 17.7 m
Radar Cross Section
36.964 m²

Expand to show TLE details & history
Last TLE update: 23 hours ago

TLE from 23 hours ago
0 STARLINK-36427
1 67333U 26002AE  26062.25221406  .00041429  00000-0  15051-2 0  9994
2 67333  43.0007   1.6684 0001206 274.7177  85.3537 15.27611537 10153
Epoch: 2026-03-03T06:03Z
TLE epoch observation values (Epoch: 2026-03-03T06:03:11.294Z)
Latitude
-0.00003°
Longitude
109.83737°
Altitude
482.663 km
Speed
7.626 km/s
True Right ascension
00h 06m 40s
True Declination
0° 00' 00"
Sunlit
Object was in daylight at epoch
Visualization orbit readout
Latitude
Unknown
Longitude
Unknown
Altitude
Unknown
Speed
Unknown
Apparent Right ascension
Unknown
Apparent Declination
Unknown
Sunlit
N/A
Visualization observer readout
Local Sidereal Time
09:13:27
Azimuth
Unknown
Elevation
Unknown
Doppler factor
Unknown
Orbital elements
Apogee altitude
485.727 km
Perigee altitude
484.072 km
Semi-major axis
6,863.037 km
Eccentricity
0.00012
Inclination
43.0007°
RAAN
1.6684°
Arg. of periapsis
274.7177°
True anomaly
85.36747°
Mean anomaly
85.3537°
Eccentric anomaly
85.36059°
Mean motion
3.81741 °/min
Orbital period
94.3 mins
BSTAR
0.0015051
Loading maneuver chart data...
Computing Atmospheric mass density...
Loading historical data...
Loading historical data...
Loading historical data...
Loading historical data...
Loading historical data...
Loading historical data...
Loading historical data...

Documentation

Showing up to 5 results
|